Tracking 19245 objects as of 17-Aug-2018
HD Live streaming from Space Station
objects crossing your sky now

FENGYUN 1C DEB

Track FENGYUN 1C DEB now!
10-day predictions


NORAD ID: 38138
Int'l Code: 1999-025EQK
Perigee: 808.8 km
Apogee: 886.4 km
Inclination: 98.9 °
Period: 101.7 minutes
Semi major axis: 7218 km
RCS: 0.0022 m2 (small)
Launch date: May 10, 1999
Source: People's Republic of China (PRC)
Launch site: Taiyaun Space Center, China (TSC)

Note: This is SATELLITE DEBRIS
aabbcc
Your satellite tracking list
Your tracking list is empty




NASA's NSSDC Master Catalog

Two Line Element Set (TLE):
1 38138U 99025EQK 18228.38648953  .00000435  00000-0  24193-3 0  9999
2 38138  98.9358 281.4009 0053802  95.5737 265.1575 14.15542082402677
Source of the keplerian elements: AFSPC